Temp
18 16 16 16 16 18 18 18 19 19 20 18 16 17 18 15 13 13 12 11 11 11 10 11 10 10 10 9 9 10 10 10 11 11 10 9 9 9 9 9 10 10 10 11
16 15 17 17 17 17 18 18 16 17 19 17 18 16 16 16 15 16 15 14 13 9 7 8 9 9 9 9 9 9 10 9 10 11 10 9 9 8 8 8 9 9 10 10
15 18 17 17 17 17 17 16 17 18 19 18 17 15 16 17 15 15 16 16 14 11 9 7 7 8 9 9 9 9 9 9 8 9 9 8 7 7 7 7 8 8 9 10
15 17 18 16 17 17 16 17 18 19 18 16 17 16 16 17 16 15 17 15 15 11 9 8 7 7 8 9 9 9 8 8 9 9 9 10 8 6 6 7 7 7 8 9
17 16 16 17 17 17 17 18 18 18 16 16 16 14 15 17 16 17 19 15 13 10 9 8 8 8 8 9 8 8 9 9 9 9 9 9 7 7 6 6 6 6 7 7
17 17 16 17 17 17 16 16 15 13 13 13 16 15 15 17 19 18 18 17 13 10 9 9 8 7 8 9 8 9 9 9 9 9 9 9 9 7 5 5 5 5 5 6
16 16 17 16 17 16 16 16 14 13 12 15 14 13 19 18 17 18 20 16 11 10 9 7 5 6 6 8 8 9 9 8 8 8 8 8 9 8 6 5 5 5 5 5
16 15 15 15 17 16 15 15 13 14 13 13 13 13 16 15 17 14 13 12 9 8 8 7 6 6 6 6 8 8 8 9 8 7 7 7 8 7 6 6 6 6 6 5
15 16 15 15 16 19 15 15 17 15 4 9 14 14 15 14 14 13 13 11 8 7 7 6 6 6 5 5 7 7 8 8 7 7 7 7 7 7 6 6 6 6 5 5
17 15 13 15 16 15 15 15 14 11 12 11 13 13 17 16 15 15 14 10 8 7 6 5 5 5 5 5 6 7 7 7 7 7 7 7 6 6 6 6 6 5 5 5
16 16 13 14 13 14 14 14 15 14 12 12 11 15 14 17 16 15 14 11 8 7 6 5 5 4 4 5 5 6 6 7 6 6 6 6 6 6 6 6 5 5 5 4
15 16 10 13 13 13 14 15 13 13 12 10 11 18 16 16 16 14 14 11 8 8 6 5 5 4 3 3 4 5 5 6 6 6 6 6 6 5 5 5 5 4 5 4
15 14 11 12 13 13 13 14 16 14 10 13 14 18 12 12 15 14 13 11 8 7 6 5 4 3 3 3 3 3 4 5 5 5 5 5 5 4 5 5 4 4 4 3
16 14 15 16 17 14 12 12 13 16 15 16 16 19 16 17 16 15 12 10 7 7 6 5 5 4 4 3 3 3 3 4 5 5 4 4 4 4 5 4 4 4 3 3
16 14 14 17 16 15 14 13 14 14 16 17 19 17 19 18 15 15 13 9 7 7 6 6 5 5 4 4 3 3 3 4 4 4 4 4 4 4 4 3 3 3 2 2
13 14 15 15 15 13 14 13 14 15 16 16 17 17 17 16 15 12 12 9 8 8 8 7 6 5 5 4 4 3 3 3 4 3 3 3 3 3 3 3 2 2 2 1
14 13 12 13 15 12 12 14 14 14 15 15 15 17 14 16 15 13 11 10 10 9 9 8 7 6 6 5 4 3 3 2 2 2 2 3 3 3 2 2 2 1 1 1
10 12 12 13 12 13 14 15 16 15 15 15 15 15 12 14 15 14 12 10 10 10 9 8 7 7 6 5 4 3 3 2 2 2 2 2 2 2 2 1 1 1 1 1
12 11 11 12 13 15 13 11 12 13 15 16 15 16 16 15 11 12 9 11 12 10 9 8 8 7 6 5 4 3 2 3 3 1 1 2 2 2 1 1 1 1 1 0
11 11 11 10 13 14 14 11 11 11 14 14 14 15 14 11 11 15 13 7 7 6 7 6 7 6 5 4 4 3 2 1 1 1 1 2 3 1 1 2 1 1 1 1
10 11 11 12 12 12 7 5 10 13 14 2 5 7 7 10 13 8 8 7 5 5 5 6 6 5 4 4 4 2 1 1 3 2 1 0 0 1 2 1 1 1 0 -0
10 11 12 12 12 13 7 9 12 10 5 4 7 8 7 7 7 5 5 4 3 2 3 4 4 4 4 4 3 1 1 2 2 2 1 0 1 1 1 1 1 0 -0 -1
9 10 10 9 10 8 6 9 7 6 6 7 8 7 6 6 6 4 2 2 2 1 2 3 3 2 3 4 4 2 3 3 2 2 2 2 1 2 2 1 1 -1 -2 -2
6 6 8 8 7 6 5 6 5 6 7 7 6 5 5 6 3 3 1 1 0 -1 -0 2 2 0 -0 2 3 4 3 3 3 2 2 2 1 1 0 0 -0 -1 -2 -3
6 6 6 6 6 4 4 3 5 5 5 5 4 5 5 3 3 2 -1 -2 -2 -1 -0 1 1 1 0 1 2 3 3 3 3 2 2 1 1 0 -1 -2 -2 -2 -3 -3
4 6 8 8 7 8 8 5 3 4 5 4 5 4 2 4 2 0 -1 -1 -1 -2 -0 0 1 1 0 1 2 2 3 3 3 2 1 0 -0 -1 -2 -3 -4 -5 -5 -6
Height
823 836 841 833 832 828 833 839 836 829 821 830 834 829 819 822 827 826 825 824 823 821 822 827 830 831 833 835 836 837 839 840 842 845 849 854 856 859 861 862 864 866 868 869
835 838 821 824 828 831 833 838 842 832 822 830 826 828 819 818 815 811 809 810 810 817 819 822 824 826 828 830 833 835 837 840 842 843 846 850 854 859 861 863 866 867 869 870
831 817 813 822 829 834 834 839 837 833 824 825 827 831 819 805 805 801 798 793 797 801 808 815 818 820 823 826 828 832 835 838 841 842 844 848 854 858 862 864 866 868 870 870
823 811 815 824 826 827 837 824 824 826 832 846 828 832 814 805 801 796 786 788 785 792 801 807 811 815 817 820 825 830 833 836 839 842 843 845 848 854 860 863 866 868 871 872
810 812 817 819 817 819 824 817 822 824 836 836 834 846 812 799 801 791 773 775 778 783 787 794 798 803 810 817 821 826 831 834 837 840 842 844 847 852 859 863 866 869 872 874
803 800 804 803 807 809 816 822 833 841 844 852 827 833 809 798 780 776 763 761 769 774 779 786 794 801 807 814 819 823 827 831 835 839 841 843 845 850 856 861 864 868 871 874
807 804 798 800 810 812 816 827 853 856 861 832 820 826 780 777 771 762 755 756 764 768 776 782 789 795 802 806 812 818 822 826 831 836 839 842 844 847 851 856 860 865 869 872
806 813 800 795 792 808 818 819 841 848 849 832 824 815 782 766 757 760 760 759 765 771 775 779 783 789 795 801 807 812 816 822 827 832 837 841 843 846 851 855 859 863 867 871
801 798 786 789 788 788 814 817 806 825 886 857 810 790 771 766 764 760 756 759 768 770 772 775 781 785 791 796 801 806 811 817 823 829 833 838 841 845 849 855 860 864 868 871
780 796 795 790 788 793 795 799 824 839 844 844 806 797 772 762 761 753 752 760 764 768 772 775 778 783 788 792 798 804 809 813 819 825 830 834 839 844 848 853 857 861 865 869
775 783 798 792 793 791 800 802 802 806 821 822 822 777 756 746 748 749 747 752 759 764 766 771 776 781 786 790 795 801 806 810 816 822 827 831 836 841 846 850 855 859 864 867
770 776 806 792 784 785 782 783 795 806 810 816 811 740 739 740 740 745 744 746 751 754 761 767 773 778 783 787 791 796 802 807 812 818 823 828 833 837 842 848 852 857 861 865
764 779 801 794 789 787 786 782 774 786 804 788 792 726 747 745 738 740 742 743 751 755 761 766 770 773 778 783 787 792 797 803 809 815 820 825 830 834 838 843 849 853 857 862
749 767 765 757 754 766 782 779 777 772 776 759 751 727 739 735 736 736 740 744 749 752 756 761 765 768 773 778 782 788 794 800 806 812 818 822 825 830 834 839 844 848 853 858
747 760 760 739 747 753 755 761 763 764 740 757 709 737 712 725 733 730 733 741 747 750 753 753 756 761 766 772 777 783 789 794 801 807 812 817 822 828 833 837 840 846 851 855
749 747 752 744 741 752 753 753 740 738 736 742 726 718 719 719 719 727 727 734 739 739 739 741 747 752 755 760 768 775 780 785 794 801 806 812 819 824 828 835 838 843 848 852
742 750 754 742 738 757 759 715 734 736 726 727 733 689 718 714 716 718 719 722 724 727 727 732 733 737 743 748 755 764 773 782 788 795 803 808 814 821 825 831 835 838 842 847
745 738 741 733 744 734 697 701 706 714 713 719 715 694 713 707 702 700 708 714 714 713 717 722 727 732 738 746 752 761 768 775 785 792 798 805 811 817 822 825 830 834 837 842
727 733 733 726 719 709 700 704 705 713 696 694 702 694 694 698 710 694 703 698 698 703 704 708 715 724 733 741 749 757 764 771 779 785 791 798 804 811 816 819 824 829 833 838
717 718 725 730 711 702 685 696 696 704 701 684 692 685 688 704 712 675 687 694 695 695 698 703 711 719 727 734 742 750 758 764 769 775 782 791 800 804 808 814 818 823 826 830
710 704 704 706 698 699 706 712 699 703 684 709 703 699 701 701 689 695 689 691 693 694 699 704 709 714 720 730 738 746 751 755 759 769 777 785 792 797 803 810 814 817 822 827
708 696 689 695 689 685 699 703 691 689 700 703 697 696 694 696 696 697 696 696 696 698 701 706 712 720 724 729 738 745 747 752 759 766 773 781 786 792 797 802 807 812 817 821
706 697 698 698 688 691 693 688 690 693 693 692 692 694 694 694 696 698 700 701 700 701 705 709 714 722 727 732 737 743 748 753 758 765 770 777 781 786 791 796 801 807 812 815
703 700 694 698 698 698 698 695 697 696 694 693 694 695 696 695 700 701 703 705 705 707 709 712 717 723 729 736 741 745 751 755 760 764 769 775 778 782 788 793 798 803 806 809
692 692 692 693 693 700 696 696 693 695 697 697 698 696 697 698 700 702 707 709 710 711 714 718 722 728 733 739 744 748 751 754 759 764 769 773 776 780 785 789 793 797 801 805
690 683 680 677 676 677 679 681 690 693 696 699 695 698 700 701 703 704 707 709 712 716 719 724 728 732 736 740 743 748 751 754 759 763 767 771 774 778 782 786 790 794 798 801
Wind_Speed
0 4 7 13 10 4 4 4 4 4 4 6 8 9 11 9 8 10 10 12 14 16 13 21 20 19 18 19 20 22 25 26 27 28 28 26 25 23 22 21 21 20 19 18
4 8 11 5 5 6 5 5 7 6 4 7 6 11 11 5 9 14 18 16 17 8 9 20 25 24 25 24 24 25 27 29 29 31 30 28 28 23 23 22 20 20 20 21
8 6 5 8 5 6 6 7 5 8 2 3 3 6 9 10 8 7 14 17 13 19 18 15 23 30 28 28 28 28 29 30 29 29 29 29 24 26 24 23 23 23 23 24
6 5 5 5 6 8 7 7 6 5 2 5 3 7 5 6 11 9 17 14 17 14 14 15 23 27 33 32 28 29 29 29 28 28 30 33 33 31 27 28 27 26 24 24
9 8 9 7 7 10 7 4 5 3 3 2 3 5 6 4 8 12 18 13 14 16 21 21 27 31 35 32 31 31 32 29 29 29 31 32 33 29 32 31 30 27 26 24
5 1 7 9 3 8 6 5 6 4 3 4 10 8 5 6 14 9 17 12 14 16 18 18 24 27 34 32 32 34 32 30 30 30 32 33 35 39 37 34 32 29 27 25
3 4 2 4 5 3 5 7 2 3 1 8 3 6 14 7 11 14 16 10 10 11 15 16 16 25 30 37 37 36 35 33 32 31 32 34 37 41 41 38 36 33 30 26
11 7 11 7 12 7 8 9 6 7 5 5 0 7 6 13 12 7 8 8 7 9 12 15 20 26 29 35 39 38 37 35 34 34 35 36 40 41 39 38 36 33 30 27
7 7 1 0 4 13 7 9 5 2 2 1 6 8 7 10 9 10 12 4 7 9 13 15 19 25 29 34 40 40 39 38 37 37 37 39 41 40 39 35 32 30 28 27
5 3 1 1 4 3 6 8 2 1 2 6 5 6 9 4 12 13 13 7 9 8 9 11 17 23 27 32 36 38 39 40 40 39 40 41 40 38 36 35 33 32 30 28
5 5 1 3 7 11 4 5 4 5 6 5 3 7 7 13 11 12 12 9 9 12 13 12 15 21 26 30 35 38 39 39 40 40 40 41 39 37 36 35 34 32 30 27
9 3 5 9 3 3 1 4 6 5 6 5 3 17 6 6 5 8 10 8 9 12 13 12 16 21 24 29 34 37 39 41 41 41 42 41 40 38 38 35 34 32 30 27
10 5 1 5 3 2 5 7 15 2 3 10 6 15 2 5 5 6 9 6 6 9 11 10 13 19 24 28 31 34 38 40 41 41 41 41 41 39 38 36 35 33 30 29
12 6 11 18 4 8 7 9 12 18 10 10 20 20 6 6 6 8 7 5 8 10 13 13 13 17 23 26 30 31 32 38 40 40 40 41 41 40 39 37 36 34 32 31
14 14 9 23 8 9 10 13 21 23 33 12 34 19 21 13 11 9 7 6 8 10 12 15 15 13 23 25 28 31 33 39 42 42 42 42 40 39 37 37 36 33 32 30
1 14 16 25 18 9 6 11 25 30 29 27 30 31 6 8 6 6 10 10 11 13 17 17 16 16 25 30 31 32 35 41 44 42 42 41 39 39 37 36 35 33 32 30
18 12 13 22 15 4 6 35 11 15 22 23 23 37 7 15 14 12 12 12 15 14 17 17 19 19 29 34 35 35 34 35 41 39 39 39 39 38 37 36 35 35 34 31
6 19 13 16 6 15 24 15 25 27 23 18 20 28 8 14 18 16 7 10 15 16 13 14 14 23 27 28 31 30 34 36 36 37 39 39 37 37 37 36 36 35 34 33
14 10 6 8 15 10 12 5 8 12 29 29 25 28 26 20 3 19 10 16 14 12 14 17 23 24 25 28 30 31 33 36 38 36 37 39 38 37 39 40 37 35 33 35
20 19 12 4 10 12 9 4 6 6 17 12 20 28 24 4 9 21 6 7 11 8 16 19 26 28 29 32 37 36 33 33 33 36 39 39 37 41 42 40 39 37 38 39
9 15 20 18 12 5 4 5 4 11 8 1 0 2 5 8 9 5 1 3 4 6 12 21 27 27 29 34 37 30 29 33 38 35 35 36 40 43 40 38 37 38 35 34
5 7 11 10 12 18 8 3 11 4 1 3 2 3 5 5 3 2 1 5 6 8 12 19 19 17 21 30 31 23 26 27 26 29 31 34 36 37 37 35 34 32 31 32
4 7 2 4 2 3 5 2 2 2 4 3 2 2 3 3 1 2 4 5 5 7 12 19 22 20 19 25 30 27 26 24 24 26 29 30 30 31 30 30 29 28 29 30
5 4 5 3 3 4 4 1 2 2 1 2 1 3 4 3 5 3 4 4 5 7 11 15 21 18 17 20 22 20 21 20 22 24 24 24 24 25 26 25 27 28 29 31
3 10 7 4 4 1 8 7 5 3 2 2 0 2 3 6 4 5 4 4 5 9 13 20 21 21 21 19 16 14 18 19 19 19 20 21 22 23 23 24 25 26 27 27
4 5 5 4 3 3 3 9 9 8 5 6 5 2 1 3 6 5 5 6 9 13 17 18 19 22 19 18 16 14 13 14 16 18 19 21 21 22 22 22 19 18 18 16
Wind_Direction
219 116 203 205 198 175 163 195 235 257 222 168 226 252 261 202 223 234 226 219 217 217 198 198 195 193 190 188 182 178 175 172 169 162 155 150 146 144 144 145 149 149 145 142
55 228 229 187 205 215 234 248 260 273 242 181 248 245 257 198 224 219 223 223 220 187 178 189 190 191 193 188 186 182 180 175 173 170 165 159 153 148 145 146 147 144 143 139
175 214 160 170 181 191 234 212 228 233 338 261 325 272 245 253 228 242 236 229 218 201 187 183 188 193 192 192 189 186 182 176 178 177 168 158 151 145 142 144 143 143 142 137
226 229 156 170 198 172 238 207 199 210 130 243 155 281 263 241 246 227 244 224 220 193 183 181 186 192 194 194 190 188 181 178 182 181 174 169 160 151 152 148 144 142 142 137
225 183 186 189 192 168 229 168 196 203 192 351 215 285 258 235 257 255 251 230 215 191 182 186 190 190 191 189 187 185 178 182 183 184 180 173 163 159 152 149 146 143 141 138
224 214 168 196 142 181 134 83 49 52 80 259 227 204 198 209 233 250 254 246 204 190 192 188 183 177 184 184 181 181 186 187 188 190 187 181 169 159 155 154 150 147 144 141
141 217 206 154 108 74 120 104 292 314 327 241 283 233 252 254 248 227 251 258 209 189 177 171 167 173 179 181 183 187 189 188 191 192 189 184 176 169 165 162 157 154 151 148
200 251 174 185 199 165 196 164 169 214 216 256 1 237 248 227 257 275 260 272 182 171 180 181 177 176 176 180 185 189 190 192 192 193 189 185 178 173 170 168 164 161 158 154
177 251 156 1 144 161 196 214 173 19 72 357 224 285 290 252 276 276 259 206 177 184 184 180 173 176 176 182 187 190 190 190 187 188 186 184 180 176 173 171 168 164 162 159
213 282 25 228 110 35 163 161 91 37 227 255 267 259 232 234 229 246 265 204 199 177 169 175 178 179 183 186 189 192 192 190 190 190 189 186 183 181 177 173 172 171 168 165
177 189 278 128 214 173 142 191 188 140 160 207 286 254 219 210 210 226 250 232 186 185 181 181 181 183 184 185 190 192 193 190 190 191 190 187 185 183 181 178 177 176 173 171
199 190 189 202 222 244 178 220 163 149 211 230 186 257 184 193 187 208 254 232 194 186 181 181 179 174 178 183 189 191 193 194 193 192 190 188 186 185 183 182 182 180 179 178
165 217 23 328 345 352 211 208 212 75 63 217 190 259 276 229 234 239 250 242 188 169 171 176 173 181 184 186 187 189 192 195 194 192 191 189 188 186 186 187 185 185 184 182
166 171 208 232 191 152 198 198 203 209 232 226 238 258 199 226 226 244 239 220 192 182 180 185 189 190 189 188 186 189 190 195 193 192 192 190 190 191 191 190 189 189 189 188
173 223 215 241 227 190 199 197 206 209 226 208 252 237 249 239 221 235 215 197 186 190 192 197 194 189 185 186 187 188 189 194 197 195 195 197 194 195 196 193 192 193 194 196
238 236 230 254 243 200 230 232 217 212 225 230 251 259 153 225 229 199 211 193 199 204 211 203 195 189 188 187 188 186 187 193 197 196 197 198 198 198 198 198 196 196 199 201
210 219 227 246 236 166 261 236 200 220 225 217 233 246 211 249 236 229 221 203 207 214 215 203 198 195 192 190 185 188 188 188 193 194 199 201 202 202 200 202 200 201 202 205
206 218 214 237 155 223 241 244 222 225 235 226 251 258 219 243 251 251 216 200 217 217 210 201 196 197 195 186 184 181 184 185 189 195 202 204 203 204 205 206 207 206 208 211
206 201 225 226 227 264 281 198 166 187 243 233 236 252 255 254 292 267 207 222 229 213 206 202 194 183 175 175 175 174 177 189 193 195 200 205 205 207 212 211 210 213 214 218
209 205 208 179 229 231 269 182 184 119 249 209 214 240 246 170 250 263 222 193 214 196 176 168 169 165 166 173 179 178 180 184 190 196 202 209 211 217 216 216 214 216 221 225
207 205 211 221 240 248 231 218 143 170 243 314 112 320 134 194 230 305 357 104 152 148 149 160 160 168 174 177 181 179 179 189 202 201 208 215 216 217 220 218 219 222 224 228
214 208 218 229 237 237 155 103 193 200 149 171 214 212 202 238 323 6 42 126 123 116 122 150 143 149 166 177 176 176 186 197 199 207 209 213 214 214 216 219 222 226 228 229
220 196 210 228 257 317 207 27 57 163 153 195 187 237 173 156 122 130 121 98 97 112 124 145 140 145 161 177 187 185 199 201 199 200 203 207 208 212 217 218 221 221 224 228
243 171 180 122 222 251 280 272 243 249 198 117 95 170 173 148 163 119 116 113 102 102 118 139 144 141 147 174 188 201 188 188 188 191 197 201 204 208 215 219 223 223 223 227
182 149 173 252 200 280 256 220 200 173 43 71 298 92 172 144 149 146 130 108 99 113 126 145 144 150 154 159 160 164 175 179 184 191 196 200 204 208 209 215 221 225 233 238
197 175 183 212 188 172 248 196 168 157 167 184 87 69 32 158 159 134 129 130 138 137 145 145 150 148 149 152 151 153 164 179 187 189 196 202 203 205 208 211 212 223 233 241